Location: Holiday Acres Laynes 2 Mobile Home Park
(26.7249°N, 81.8671°W)
Time: 12:30:45
(UTC+00:00)

Meteor 1-4 Rocket - Pass Details

Date: 25 November 2020
Orbit: 449 x 500 km, 81.2° (Epoch: 23 January)

Event Time Altitude Azimuth Distance (km) Brightness Sun altitude
Rises 23:18:19 0° 172° (S) 2,559 6.4 -10.0°
Reaches altitude 10° 23:20:30 10° 164° (SSE) 1,674 5.3 -10.5°
Maximum altitude 23:23:57 39° 94° (E) 735 3.0 -11.2°
Drops below altitude 10° 23:27:22 10° 24° (NNE) 1,657 4.9 -11.9°
Enters shadow 23:27:49 - 22° (NNE) 1,836 5.1 -12.0°
